Location: Bailey Inglish Elementary School
(33.5826°N, 96.1780°W)
Time: 02:24:39
(UTC+00:00)

ISS - Visible Passes

Search period start: 24 June 2024 00:00
Search period end: 04 July 2024 00:00
Orbit: 410 x 425 km, 51.6° (Epoch: 23 June)

Date Brightness Start Highest point End Pass type
(mag) Time Alt. Az. Time Alt. Az. Time Alt. Az.
24 Jun -2.2 08:46:41 34° ENE 08:46:41 34° ENE 08:48:45 10° NE visible
24 Jun -1.2 10:20:41 10° WNW 10:22:31 14° NNW 10:24:21 10° N visible
25 Jun -0.5 08:00:20 11° ENE 08:00:20 11° ENE 08:00:25 10° ENE visible
25 Jun -1.9 09:33:14 19° WNW 09:34:13 21° NW 09:36:51 10° NNE visible
26 Jun -2.0 08:46:48 30° N 08:46:48 30° N 08:49:04 10° NNE visible
27 Jun -0.8 08:00:17 16° NE 08:00:17 16° NE 08:01:04 10° NE visible
28 Jun -1.1 08:46:36 14° NNW 08:46:37 14° NNW 08:48:32 10° N visible
29 Jun -0.7 07:59:56 15° N 07:59:56 15° N 08:00:53 10° NNE visible
